Regional Weather Roundup
Issued by NWS

Home | Current Version | Previous Version | Graphics & Text | Print | Product List | Glossary On
Versions: 1 2 3 4 5 6 7 8 9 10 11 12 13 14 15 16 17 18 19 20 21 22 23 24 25 26 27 28 29 30 31 32 33 34 35 36 37 38 39 40 41 42 43 44 45 46 47 48 49 50
000
ASUS43 KTOP 182108
RWRKS

WEATHER ROUNDUP FOR KANSAS
NATIONAL WEATHER SERVICE GOODLAND KS
400 PM CDT FRI APR 18 2014

NOTE:  "FAIR" INDICATES FEW OR NO CLOUDS BELOW 12,000 FEET WITH NO
SIGNIFICANT WEATHER AND/OR OBSTRUCTIONS TO VISIBILITY.

KSZ001>006-013>018-027>032-041>047-182200-
NORTHWEST KANSAS

CITY           SKY/WX    TMP DP  RH WIND       PRES   REMARKS
GOODLAND       MOSUNNY   74  37  26 S24G33    29.95F
HAYS           MOSUNNY   72  45  37 S28G37    30.06F
HILL CITY      MOSUNNY   73  41  31 S20G35    30.02F
RUSSELL        MOSUNNY   71  42  35 S29G36    30.06F
$$

KSZ061>065-074>080-084>089-182200-
SOUTHWEST KANSAS

CITY           SKY/WX    TMP DP  RH WIND       PRES   REMARKS
DODGE CITY     SUNNY     70  42  36 S29G36    30.08F
ELKHART          N/A     72  41  32 S17         N/A
GARDEN CITY    SUNNY     68  43  40 S25G37    30.04F
GREAT BEND     SUNNY     70  43  37 S25G35    30.09F
LIBERAL        SUNNY     72  43  35 S26       30.07F
PRATT          SUNNY     68  41  37 S17G28    30.13F
$$

KSZ066>073-081>083-090>101-182200-
SOUTHEAST KANSAS

CITY           SKY/WX    TMP DP  RH WIND       PRES   REMARKS
CHANUTE        SUNNY     69  41  36 VRB3      30.20F
COFFEYVILLE    SUNNY     72  41  32 VRB5      30.18F
HUTCHINSON     SUNNY     71  42  35 S18G30    30.14F
MEDICINE LODGE   N/A     70  43  37 S20G29    30.12F
NEWTON         SUNNY     70  43  37 S21       30.18F
PARSONS        SUNNY     72  40  31 SE5       30.19F
WICHITA INTL   MOSUNNY   71  43  36 S17       30.15F
WICHITA JABRA  SUNNY     71  43  36 S15G22    30.15F
WICHITA MCCONL SUNNY     71  42  35 SE13G20   30.16F
WINFIELD       SUNNY     72  44  36 S10       30.17F
$$

KSZ007>012-019>026-033>040-048>060-102>105-182200-
NORTHEAST KANSAS

CITY           SKY/WX    TMP DP  RH WIND       PRES   REMARKS
CONCORDIA      MOSUNNY   72  42  34 S24G32    30.10F
EMPORIA        SUNNY     68  41  37 S12G21    30.18F
LAWRENCE       SUNNY     69  41  36 SE8       30.20F
MANHATTAN      MOSUNNY   70  41  34 SE17G24   30.15F
OLATHE IND     SUNNY     68  42  38 S12G18    30.21F
OLATHE EXE     SUNNY     65  41  41 S7        30.21F
SALINA         SUNNY     73  42  32 S25       30.12F
TOPEKA BILLARD SUNNY     69  42  37 SE14G22   30.18F
TOPEKA FORBES  SUNNY     69  41  36 SE14G21   30.19F
$$



USA.gov is the U.S. government's official web portal to all federal, state and local government web resources and services.